�������l�o���
Date,Time,MP-1(��Sv/h),MP-2(��Sv/h),MP-3(��Sv/h),MP-4(��Sv/h),MP-5(��Sv/h),MP-6(��Sv/h),MP-7(��Sv/h),MP-8(��Sv/h),����,����(m/s),���J
2018/06/30,00:00,0.906,1.284,0.893,1.607,1.130,0.482,0.841,0.798,���k��,1.7,��
2018/06/30,00:10,0.902,1.284,0.894,1.606,1.133,0.481,0.840,0.798,-,CALM,��
2018/06/30,00:20,0.902,1.282,0.894,1.605,1.134,0.481,0.841,0.797,�k�k��,0.9,��
2018/06/30,00:30,0.902,1.283,0.892,1.605,1.132,0.482,0.841,0.797,-,CALM,��
2018/06/30,00:40,0.904,1.284,0.894,1.606,1.131,0.481,0.840,0.798,�쓌,2.0,��
2018/06/30,00:50,0.904,1.284,0.894,1.607,1.130,0.480,0.841,0.798,��쓌,1.2,��
2018/06/30,01:00,0.902,1.280,0.895,1.602,1.131,0.481,0.840,0.796,��쓌,2.9,��
2018/06/30,01:10,0.902,1.284,0.894,1.606,1.131,0.482,0.842,0.798,��쓌,2.6,��
2018/06/30,01:20,0.904,1.283,0.894,1.606,1.131,0.480,0.840,0.798,�쓌,3.2,��
2018/06/30,01:30,0.903,1.281,0.894,1.606,1.130,0.482,0.841,0.798,��쓌,4.2,��
2018/06/30,01:40,0.903,1.283,0.895,1.606,1.132,0.480,0.843,0.798,��,3.0,��
2018/06/30,01:50,0.906,1.283,0.895,1.602,1.132,0.482,0.840,0.798,��쐼,2.2,��
2018/06/30,02:00,0.901,1.280,0.892,1.606,1.131,0.481,0.840,0.799,��,3.0,��
2018/06/30,02:10,0.903,1.284,0.893,1.605,1.129,0.482,0.842,0.798,��쐼,4.1,��
2018/06/30,02:20,0.903,1.283,0.895,1.604,1.131,0.483,0.840,0.796,��,4.8,��
2018/06/30,02:30,0.900,1.282,0.896,1.605,1.130,0.483,0.842,0.798,��,4.9,��
2018/06/30,02:40,0.902,1.284,0.894,1.605,1.131,0.481,0.841,0.798,��쐼,4.9,��
2018/06/30,02:50,0.902,1.283,0.895,1.604,1.129,0.481,0.842,0.797,��,5.5,��
2018/06/30,03:00,0.902,1.285,0.895,1.605,1.132,0.482,0.842,0.797,��쐼,4.9,��
2018/06/30,03:10,0.902,1.281,0.895,1.607,1.130,0.482,0.842,0.800,��,5.5,��
2018/06/30,03:20,0.901,1.283,0.894,1.605,1.132,0.482,0.841,0.798,��쐼,4.1,��
2018/06/30,03:30,0.902,1.283,0.896,1.607,1.129,0.482,0.841,0.799,��,3.0,��
2018/06/30,03:40,0.901,1.283,0.895,1.607,1.130,0.483,0.842,0.798,��쐼,3.1,��
2018/06/30,03:50,0.901,1.283,0.894,1.604,1.131,0.480,0.841,0.799,��쐼,1.9,��
2018/06/30,04:00,0.902,1.283,0.895,1.603,1.130,0.483,0.841,0.798,��,1.4,��
2018/06/30,04:10,0.903,1.282,0.893,1.604,1.131,0.482,0.841,0.799,-,CALM,��
2018/06/30,04:20,0.903,1.281,0.893,1.605,1.131,0.482,0.841,0.799,�k�k��,0.8,��
2018/06/30,04:30,0.901,1.283,0.893,1.607,1.132,0.482,0.841,0.799,�k��,2.2,��
2018/06/30,04:40,0.903,1.282,0.894,1.606,1.133,0.481,0.840,0.798,���k��,1.2,��
2018/06/30,04:50,0.904,1.284,0.896,1.606,1.130,0.481,0.841,0.798,�k��,1.5,��
2018/06/30,05:00,0.902,1.282,0.894,1.606,1.132,0.481,0.842,0.798,���k��,1.4,��
2018/06/30,05:10,0.903,1.283,0.895,1.605,1.130,0.482,0.842,0.798,�k�k��,3.1,��
2018/06/30,05:20,0.901,1.283,0.894,1.603,1.131,0.483,0.841,0.798,�k,2.8,��
2018/06/30,05:30,0.902,1.283,0.895,1.604,1.130,0.484,0.842,0.801,�k,3.0,��
2018/06/30,05:40,0.903,1.283,0.891,1.607,1.131,0.482,0.841,0.800,�k,2.8,��
2018/06/30,05:50,0.902,1.281,0.895,1.608,1.130,0.483,0.841,0.798,�k,2.0,��
2018/06/30,06:00,0.902,1.281,0.894,1.606,1.130,0.482,0.842,0.800,�k�k��,2.3,��
2018/06/30,06:10,0.902,1.284,0.890,1.604,1.131,0.483,0.841,0.799,�k�k��,3.4,��
2018/06/30,06:20,0.903,1.282,0.893,1.608,1.129,0.483,0.843,0.800,�k�k��,2.3,��
2018/06/30,06:30,0.905,1.280,0.895,1.607,1.131,0.481,0.843,0.797,�k,1.4,��
2018/06/30,06:40,0.904,1.279,0.892,1.607,1.132,0.483,0.843,0.798,�k��,0.9,��
2018/06/30,06:50,0.903,1.280,0.894,1.604,1.132,0.484,0.842,0.798,��쐼,0.6,��
2018/06/30,07:00,0.904,1.279,0.894,1.607,1.133,0.482,0.844,0.800,-,CALM,��
2018/06/30,07:10,0.903,1.279,0.892,1.609,1.130,0.482,0.842,0.799,�k�k��,1.1,��
2018/06/30,07:20,0.903,1.282,0.892,1.609,1.131,0.482,0.841,0.800,�k��,0.6,��
2018/06/30,07:30,0.902,1.283,0.890,1.602,1.128,0.482,0.840,0.799,�쓌,1.4,��
2018/06/30,07:40,0.901,1.283,0.892,1.602,1.131,0.482,0.838,0.797,�쓌,1.7,��
2018/06/30,07:50,0.902,1.282,0.893,1.603,1.130,0.482,0.840,0.798,�쓌,2.0,��
2018/06/30,08:00,0.902,1.281,0.891,1.607,1.133,0.481,0.839,0.795,�쓌,2.3,��
2018/06/30,08:10,0.900,1.283,0.893,1.608,1.129,0.482,0.838,0.796,�쓌,2.5,��
2018/06/30,08:20,0.902,1.280,0.893,1.607,1.130,0.481,0.842,0.798,�쓌,2.9,��
2018/06/30,08:30,0.901,1.281,0.892,1.606,1.133,0.479,0.841,0.797,�쓌,2.2,��
2018/06/30,08:40,0.904,1.282,0.893,1.607,1.131,0.481,0.841,0.797,��쓌,1.7,��
2018/06/30,08:50,0.903,1.284,0.892,1.606,1.132,0.482,0.840,0.795,��,1.2,��
2018/06/30,09:00,0.902,1.283,0.892,1.606,1.132,0.481,0.840,0.796,��,1.9,��
2018/06/30,09:10,0.903,1.281,0.890,1.607,1.130,0.481,0.843,0.796,�쓌,0.9,��
2018/06/30,09:20,0.902,1.282,0.892,1.607,1.131,0.482,0.842,0.798,�쓌,1.7,��
2018/06/30,09:30,0.902,1.284,0.892,1.609,1.134,0.482,0.841,0.793,�쓌,2.3,��
2018/06/30,09:40,0.905,1.282,0.892,1.609,1.131,0.483,0.841,0.796,�쓌,2.6,��
2018/06/30,09:50,0.902,1.286,0.894,1.609,1.134,0.484,0.842,0.797,��쓌,3.0,��
2018/06/30,10:00,0.904,1.287,0.895,1.608,1.132,0.484,0.842,0.797,��쓌,3.9,��
2018/06/30,10:10,0.906,1.286,0.896,1.607,1.135,0.483,0.841,0.797,��쓌,2.8,��
2018/06/30,10:20,0.907,1.286,0.894,1.608,1.136,0.483,0.842,0.798,��쓌,2.8,��
2018/06/30,10:30,0.906,1.286,0.897,1.608,1.135,0.482,0.844,0.798,��쓌,3.2,��
2018/06/30,10:40,0.905,1.286,0.894,1.610,1.136,0.483,0.846,0.798,��쓌,3.5,��
2018/06/30,10:50,0.905,1.289,0.893,1.610,1.136,0.484,0.843,0.798,��쓌,4.7,��
2018/06/30,11:00,0.905,1.289,0.894,1.608,1.137,0.482,0.842,0.798,��쓌,5.6,��
2018/06/30,11:10,0.902,1.289,0.894,1.606,1.138,0.483,0.844,0.797,��쓌,6.2,��
2018/06/30,11:20,0.905,1.286,0.892,1.608,1.139,0.484,0.843,0.798,��,5.8,��
2018/06/30,11:30,0.905,1.287,0.892,1.608,1.136,0.484,0.843,0.799,��,5.2,��
2018/06/30,11:40,0.906,1.287,0.896,1.608,1.139,0.485,0.844,0.798,��,5.9,��
2018/06/30,11:50,0.906,1.288,0.895,1.609,1.138,0.483,0.844,0.797,��,6.8,��
2018/06/30,12:00,0.904,1.288,0.897,1.611,1.139,0.483,0.842,0.798,��,7.6,��
2018/06/30,12:10,0.905,1.291,0.896,1.611,1.138,0.484,0.843,0.797,��,6.5,��
2018/06/30,12:20,0.906,1.290,0.897,1.610,1.140,0.482,0.842,0.797,��,7.3,��
2018/06/30,12:30,0.907,1.292,0.896,1.608,1.139,0.484,0.844,0.798,��,6.9,��
2018/06/30,12:40,0.906,1.291,0.896,1.611,1.141,0.482,0.844,0.798,��,7.4,��
2018/06/30,12:50,0.907,1.288,0.898,1.611,1.142,0.482,0.843,0.799,��,6.5,��
2018/06/30,13:00,0.905,1.290,0.896,1.612,1.139,0.482,0.845,0.799,��,7.0,��
2018/06/30,13:10,0.905,1.289,0.897,1.613,1.140,0.484,0.841,0.798,��,7.0,��
2018/06/30,13:20,0.906,1.292,0.896,1.613,1.141,0.483,0.843,0.796,��,6.9,��
2018/06/30,13:30,0.906,1.292,0.894,1.611,1.141,0.484,0.844,0.799,��,7.5,��
2018/06/30,13:40,0.905,1.288,0.897,1.612,1.143,0.483,0.844,0.799,��,6.5,��
2018/06/30,13:50,0.905,1.291,0.897,1.611,1.143,0.482,0.845,0.798,��,6.5,��
2018/06/30,14:00,0.908,1.293,0.900,1.612,1.142,0.481,0.845,0.800,��,6.4,��
2018/06/30,14:10,0.907,1.291,0.900,1.612,1.143,0.482,0.847,0.800,��,7.3,��
2018/06/30,14:20,0.907,1.294,0.900,1.614,1.144,0.484,0.848,0.800,��,7.2,��
2018/06/30,14:30,0.906,1.294,0.900,1.614,1.142,0.481,0.848,0.798,��,7.2,��
2018/06/30,14:40,0.909,1.292,0.900,1.617,1.147,0.483,0.848,0.799,��,8.2,��
2018/06/30,14:50,0.910,1.290,0.899,1.616,1.146,0.483,0.847,0.799,��쓌,8.9,��
2018/06/30,15:00,0.908,1.290,0.899,1.616,1.144,0.483,0.847,0.800,��쓌,8.1,��
2018/06/30,15:10,0.907,1.292,0.900,1.616,1.142,0.483,0.845,0.799,��,7.8,��
2018/06/30,15:20,0.908,1.294,0.899,1.618,1.144,0.482,0.845,0.799,��,6.4,��
2018/06/30,15:30,0.905,1.290,0.897,1.613,1.143,0.481,0.842,0.799,��,4.7,��
2018/06/30,15:40,0.907,1.294,0.897,1.615,1.142,0.480,0.844,0.800,��,3.3,��
2018/06/30,15:50,0.904,1.290,0.897,1.613,1.143,0.479,0.844,0.798,��,3.5,��
2018/06/30,16:00,0.908,1.292,0.897,1.614,1.143,0.481,0.843,0.797,��쐼,3.1,��
2018/06/30,16:10,0.906,1.292,0.898,1.614,1.142,0.480,0.842,0.798,��쐼,3.3,��
2018/06/30,16:20,0.909,1.290,0.898,1.613,1.143,0.481,0.844,0.796,��쐼,3.5,��
2018/06/30,16:30,0.912,1.291,0.897,1.611,1.143,0.482,0.845,0.798,��쐼,3.6,��
2018/06/30,16:40,0.910,1.290,0.899,1.612,1.144,0.480,0.841,0.796,��쐼,4.4,��
2018/06/30,16:50,0.907,1.291,0.897,1.614,1.143,0.482,0.843,0.799,��쐼,3.6,��
2018/06/30,17:00,0.908,1.292,0.897,1.612,1.143,0.482,0.844,0.797,��쐼,3.8,��
2018/06/30,17:10,0.910,1.290,0.897,1.615,1.144,0.483,0.844,0.798,��쐼,3.0,��
2018/06/30,17:20,0.913,1.293,0.899,1.616,1.142,0.481,0.843,0.799,�쐼,2.3,��
2018/06/30,17:30,0.908,1.290,0.897,1.615,1.142,0.482,0.844,0.799,��,1.2,��
2018/06/30,17:40,0.909,1.289,0.897,1.612,1.141,0.482,0.845,0.798,�k�k��,1.4,��
2018/06/30,17:50,0.908,1.289,0.898,1.614,1.142,0.482,0.844,0.797,�k,1.7,��
2018/06/30,18:00,0.911,1.291,0.897,1.615,1.140,0.483,0.843,0.799,�k,2.2,��
2018/06/30,18:10,0.908,1.290,0.897,1.614,1.143,0.481,0.845,0.800,�k,2.3,��
2018/06/30,18:20,0.907,1.287,0.897,1.615,1.140,0.482,0.843,0.799,�k,4.7,��
2018/06/30,18:30,0.906,1.288,0.896,1.612,1.139,0.482,0.844,0.799,�k,3.4,��
2018/06/30,18:40,0.907,1.289,0.897,1.614,1.143,0.481,0.843,0.799,�k,3.6,��
2018/06/30,18:50,0.907,1.289,0.899,1.615,1.140,0.481,0.843,0.798,�k,3.5,��
2018/06/30,19:00,0.908,1.290,0.897,1.611,1.140,0.481,0.843,0.799,�k,3.4,��
2018/06/30,19:10,0.907,1.290,0.895,1.613,1.140,0.482,0.843,0.799,�k�k��,2.9,��
2018/06/30,19:20,0.906,1.291,0.897,1.614,1.141,0.480,0.842,0.798,�k,3.6,��
2018/06/30,19:30,0.906,1.288,0.897,1.613,1.141,0.481,0.841,0.798,�k,2.8,��
2018/06/30,19:40,0.907,1.288,0.897,1.613,1.141,0.480,0.844,0.799,�k�k��,2.8,��
2018/06/30,19:50,0.908,1.291,0.896,1.613,1.140,0.480,0.841,0.799,�k,2.6,��
2018/06/30,20:00,0.907,1.292,0.897,1.615,1.141,0.481,0.842,0.797,�k,2.3,��
2018/06/30,20:10,0.908,1.289,0.897,1.613,1.141,0.481,0.840,0.798,�k�k��,2.0,��
2018/06/30,20:20,0.906,1.289,0.897,1.616,1.143,0.481,0.840,0.798,�k,2.3,��
2018/06/30,20:30,0.904,1.289,0.896,1.613,1.142,0.480,0.841,0.798,�k,2.3,��
2018/06/30,20:40,0.906,1.290,0.897,1.615,1.141,0.480,0.841,0.798,�k,2.0,��
2018/06/30,20:50,0.905,1.292,0.900,1.616,1.140,0.480,0.843,0.800,�k�k��,3.7,��
2018/06/30,21:00,0.907,1.293,0.896,1.614,1.141,0.481,0.840,0.799,�k�k��,3.6,��
2018/06/30,21:10,0.904,1.290,0.894,1.614,1.139,0.479,0.841,0.800,�k,2.0,��
2018/06/30,21:20,0.907,1.289,0.897,1.616,1.143,0.480,0.843,0.798,�k�k��,1.4,��
2018/06/30,21:30,0.907,1.289,0.897,1.613,1.139,0.479,0.843,0.801,�k�k��,0.8,��
2018/06/30,21:40,0.907,1.289,0.897,1.615,1.140,0.481,0.842,0.798,�k��,0.6,��
2018/06/30,21:50,0.905,1.288,0.897,1.618,1.143,0.481,0.844,0.799,-,CALM,��
2018/06/30,22:00,0.905,1.292,0.899,1.612,1.141,0.480,0.842,0.798,�쐼,0.8,��
2018/06/30,22:10,0.905,1.290,0.900,1.612,1.140,0.480,0.843,0.799,��쐼,0.6,��
2018/06/30,22:20,0.906,1.290,0.898,1.615,1.140,0.479,0.843,0.798,-,CALM,��
2018/06/30,22:30,0.904,1.287,0.897,1.616,1.143,0.480,0.842,0.799,��쓌,0.8,��
2018/06/30,22:40,0.905,1.290,0.897,1.615,1.141,0.479,0.843,0.798,-,CALM,��
2018/06/30,22:50,0.905,1.287,0.896,1.615,1.138,0.479,0.840,0.799,��,0.6,��
2018/06/30,23:00,0.905,1.288,0.897,1.613,1.140,0.479,0.844,0.799,�쓌,0.9,��
2018/06/30,23:10,0.905,1.287,0.897,1.612,1.141,0.480,0.843,0.798,�쓌,0.6,��
2018/06/30,23:20,0.905,1.288,0.896,1.613,1.140,0.479,0.841,0.799,�쓌,0.8,��
2018/06/30,23:30,0.907,1.289,0.897,1.613,1.143,0.481,0.844,0.796,�k�k��,0.8,��
2018/06/30,23:40,0.905,1.289,0.896,1.614,1.137,0.479,0.842,0.797,�k,0.6,��
2018/06/30,23:50,0.907,1.292,0.897,1.614,1.141,0.480,0.841,0.798,���k��,1.1,��
